Weather History for Kokomo, IN

Change the Weather History Date:

Saturday, October 20, 2012

  Actual Average (KGUS) Record (KGUS)
Temperature  
Mean Temperature 46 °F -  
Max Temperature 53 °F 59 °F 80 °F (2003)
Min Temperature 39 °F 41 °F 30 °F (2002)
Degree Days  
Heating Degree Days 19    
Moisture  
Dew Point 41 °F    
Average Humidity 82    
Maximum Humidity 93    
Minimum Humidity 67    
Precipitation  
Precipitation 0.00 in - - ()
Sea Level Pressure  
Sea Level Pressure 29.82 in    
Wind  
Wind Speed 10 mph (West)    
Max Wind Speed 18 mph    
Max Gust Speed 21 mph    
Visibility 10 miles    
Events      
Averages and records for this station are not official NWS values.
T = Trace of Precipitation, MM = Missing Value Source: NWS Daily Summary

Daily Weather History Graph

Daily Weather History Graph

Search for Another Location

Airport:

Trip Planner

Search our weather history database for the weather conditions in past years. The results will help you decide how hot, cold, wet, or windy it might be!

Date:

Astronomy

Oct. 20, 2012 Rise Set
Actual Time 7:01 AM CDT 5:56 PM CDT
Civil Twilight 6:33 AM CDT 6:23 PM CDT
Nautical Twilight 6:01 AM CDT 6:55 PM CDT
Astronomical Twilight 5:30 AM CDT 7:27 PM CDT
Moon 12:37 PM CDT (10/20) 10:40 PM CDT (10/20)
Length of Visible Light 11h 50m
Length of Day
10h 54m
Waxing Crescent, 34% of the Moon is Illuminated
Oct 20
Waxing Crescent
Oct 21
First Quarter
Oct 29
Full
Nov 6
Last Quarter
Nov 13
New

Hourly Weather History & Observations

Time (CDT) Temp. Windchill Dew Point Humidity Pressure Visibility Wind Dir Wind Speed Gust Speed Precip Events Conditions
12:15 AM 46.4 °F - 42.8 °F 87% - 10.0 mi North - - N/A   Overcast
12:35 AM 46.4 °F 41.5 °F 42.8 °F 87% 29.67 in 10.0 mi West 10.4 mph - N/A   Mostly Cloudy
12:55 AM 46.4 °F 41.5 °F 42.8 °F 87% 29.67 in 10.0 mi West 10.4 mph - N/A   Mostly Cloudy
1:15 AM 46.4 °F 41.5 °F 42.8 °F 87% 29.67 in 10.0 mi West 10.4 mph - N/A   Scattered Clouds
1:35 AM 46.4 °F 41.5 °F 44.6 °F 93% 29.68 in 10.0 mi West 10.4 mph - N/A   Mostly Cloudy
1:55 AM 46.4 °F 41.1 °F 42.8 °F 87% 29.68 in 10.0 mi West 11.5 mph - N/A   Overcast
2:15 AM 46.4 °F 41.5 °F 42.8 °F 87% 29.69 in 10.0 mi West 10.4 mph - N/A   Overcast
2:35 AM 46.4 °F 41.1 °F 42.8 °F 87% 29.69 in 10.0 mi West 11.5 mph - N/A   Overcast
2:55 AM 46.4 °F 40.7 °F 42.8 °F 87% 29.69 in 10.0 mi West 12.7 mph - N/A   Overcast
3:15 AM 46.4 °F 41.1 °F 42.8 °F 87% 29.69 in 10.0 mi West 11.5 mph - N/A   Overcast
3:35 AM 46.4 °F 40.1 °F 42.8 °F 87% 29.69 in 10.0 mi West 15.0 mph 18.4 mph N/A   Overcast
3:55 AM 44.6 °F 39.7 °F 42.8 °F 93% 29.70 in 10.0 mi West 9.2 mph - N/A   Overcast
4:15 AM 44.6 °F 39.7 °F 41.0 °F 87% 29.71 in 10.0 mi West 9.2 mph - N/A   Overcast
4:35 AM 44.6 °F 40.2 °F 39.2 °F 81% 29.71 in 10.0 mi West 8.1 mph - N/A   Scattered Clouds
4:55 AM 42.8 °F 37.5 °F 39.2 °F 87% 29.72 in 10.0 mi West 9.2 mph - N/A   Partly Cloudy
5:15 AM 42.8 °F 38.0 °F 39.2 °F 87% 29.72 in 10.0 mi West 8.1 mph - N/A   Partly Cloudy
5:35 AM 42.8 °F 36.6 °F 39.2 °F 87% 29.73 in 10.0 mi West 11.5 mph - N/A   Mostly Cloudy
5:55 AM 42.8 °F 37.0 °F 39.2 °F 87% 29.73 in 10.0 mi West 10.4 mph - N/A   Overcast
6:15 AM 42.8 °F 36.6 °F 39.2 °F 87% 29.74 in 10.0 mi West 11.5 mph - N/A   Overcast
6:35 AM 42.8 °F 36.6 °F 41.0 °F 93% 29.75 in 10.0 mi WNW 11.5 mph - N/A   Overcast
6:55 AM 42.8 °F 36.2 °F 41.0 °F 93% 29.75 in 10.0 mi West 12.7 mph - N/A   Overcast
7:15 AM 42.8 °F 36.2 °F 41.0 °F 93% 29.76 in 10.0 mi West 12.7 mph - N/A   Overcast
7:35 AM 42.8 °F 36.6 °F 39.2 °F 87% 29.77 in 10.0 mi West 11.5 mph - N/A   Overcast
7:55 AM 42.8 °F 36.2 °F 41.0 °F 93% 29.78 in 10.0 mi West 12.7 mph - N/A   Overcast
8:15 AM 44.6 °F 38.4 °F 39.2 °F 81% 29.79 in 10.0 mi WNW 12.7 mph - N/A   Overcast
8:35 AM 44.6 °F 38.8 °F 41.0 °F 87% 29.79 in 10.0 mi West 11.5 mph - N/A   Overcast
8:55 AM 44.6 °F 38.8 °F 42.8 °F 93% 29.80 in 10.0 mi West 11.5 mph - N/A   Overcast
9:15 AM 46.4 °F 40.7 °F 42.8 °F 87% 29.81 in 10.0 mi West 12.7 mph - N/A   Overcast
9:35 AM 46.4 °F 40.7 °F 42.8 °F 87% 29.81 in 10.0 mi West 12.7 mph 17.3 mph N/A   Overcast
9:55 AM 46.4 °F 40.7 °F 42.8 °F 87% 29.82 in 10.0 mi West 12.7 mph - N/A   Overcast
10:15 AM 48.2 °F - 44.6 °F 87% 29.82 in 10.0 mi West 12.7 mph - N/A   Mostly Cloudy
10:35 AM 48.2 °F - 42.8 °F 82% 29.83 in 10.0 mi WNW 13.8 mph - N/A   Overcast
10:55 AM 48.2 °F - 42.8 °F 82% 29.83 in 10.0 mi West 12.7 mph - N/A   Overcast
11:15 AM 48.2 °F - 42.8 °F 82% 29.84 in 10.0 mi West 13.8 mph - N/A   Overcast
11:35 AM 48.2 °F - 42.8 °F 82% 29.84 in 10.0 mi West 12.7 mph - N/A   Overcast
11:55 AM 48.2 °F - 42.8 °F 82% 29.85 in 10.0 mi West 12.7 mph - N/A   Overcast
12:15 PM 50.0 °F - 42.8 °F 76% 29.84 in 10.0 mi West 16.1 mph - N/A   Overcast
12:35 PM 51.8 °F - 42.8 °F 71% 29.84 in 10.0 mi West 15.0 mph 20.7 mph N/A   Scattered Clouds
12:55 PM 51.8 °F - 44.6 °F 76% 29.84 in 10.0 mi WNW 18.4 mph - N/A   Mostly Cloudy
1:15 PM 51.8 °F - 42.8 °F 71% 29.84 in 10.0 mi WNW 16.1 mph - N/A   Mostly Cloudy
1:35 PM 53.6 °F - 42.8 °F 67% 29.85 in 10.0 mi West 15.0 mph 19.6 mph N/A   Mostly Cloudy
1:55 PM 51.8 °F - 42.8 °F 71% 29.85 in 10.0 mi WNW 15.0 mph - N/A   Mostly Cloudy
2:15 PM 51.8 °F - 42.8 °F 71% 29.85 in 10.0 mi WNW 13.8 mph 20.7 mph N/A   Mostly Cloudy
2:35 PM 53.6 °F - 42.8 °F 67% 29.86 in 10.0 mi WNW 15.0 mph - N/A   Mostly Cloudy
2:55 PM 51.8 °F - 42.8 °F 71% 29.86 in 10.0 mi WNW 11.5 mph - N/A   Scattered Clouds
3:15 PM 53.6 °F - 42.8 °F 67% 29.86 in 10.0 mi West 11.5 mph - N/A   Scattered Clouds
3:35 PM 51.8 °F - 42.8 °F 71% 29.86 in 10.0 mi WNW 9.2 mph - N/A   Mostly Cloudy
3:55 PM 53.6 °F - 42.8 °F 67% 29.86 in 10.0 mi NW 8.1 mph - N/A   Mostly Cloudy
4:15 PM 53.6 °F - 42.8 °F 67% 29.87 in 10.0 mi West 10.4 mph - N/A   Mostly Cloudy
4:35 PM 51.8 °F - 41.0 °F 67% 29.87 in 10.0 mi West 10.4 mph - N/A   Partly Cloudy
4:55 PM 53.6 °F - 42.8 °F 67% 29.88 in 10.0 mi West 5.8 mph - N/A   Clear
5:15 PM 51.8 °F - 42.8 °F 71% 29.88 in 10.0 mi West 9.2 mph - N/A   Clear
5:35 PM 51.8 °F - 41.0 °F 67% 29.89 in 10.0 mi West 5.8 mph - N/A   Clear
5:55 PM 50.0 °F - 41.0 °F 71% 29.89 in 10.0 mi WSW 5.8 mph - N/A   Clear
6:15 PM 48.2 °F - 39.2 °F 71% 29.89 in 10.0 mi SW 5.8 mph - N/A   Clear
6:35 PM 46.4 °F 44.3 °F 39.2 °F 76% 29.90 in 10.0 mi SW 4.6 mph - N/A   Partly Cloudy
6:55 PM 46.4 °F 45.2 °F 39.2 °F 76% 29.90 in 10.0 mi SW 3.5 mph - N/A   Partly Cloudy
7:15 PM 46.4 °F 45.2 °F 39.2 °F 76% 29.91 in 10.0 mi SW 3.5 mph - N/A   Clear
7:35 PM 44.6 °F 42.2 °F 37.4 °F 76% 29.91 in 10.0 mi SSW 4.6 mph - N/A   Clear
7:55 PM 42.8 °F 39.3 °F 37.4 °F 81% 29.92 in 10.0 mi SSW 5.8 mph - N/A   Clear
8:15 PM 42.8 °F 40.1 °F 37.4 °F 81% 29.93 in 10.0 mi SSW 4.6 mph - N/A   Clear
8:35 PM 42.8 °F 40.1 °F 37.4 °F 81% 29.93 in 10.0 mi SSW 4.6 mph - N/A   Clear
8:55 PM 41.0 °F 39.0 °F 37.4 °F 87% 29.94 in 10.0 mi South 3.5 mph - N/A   Clear
9:15 PM 41.0 °F 39.0 °F 37.4 °F 87% 29.94 in 10.0 mi SSW 3.5 mph - N/A   Clear
9:35 PM 39.2 °F - 37.4 °F 93% 29.95 in 10.0 mi Calm Calm - N/A   Clear
9:55 PM 39.2 °F 35.0 °F 37.4 °F 93% 29.96 in 10.0 mi SSW 5.8 mph - N/A   Clear
10:15 PM 39.2 °F 35.9 °F 37.4 °F 93% 29.96 in 10.0 mi SSW 4.6 mph - N/A   Clear
10:35 PM 39.2 °F 37.0 °F 37.4 °F 93% 29.96 in 10.0 mi SSW 3.5 mph - N/A   Clear
10:55 PM 39.2 °F 35.9 °F 35.6 °F 87% 29.97 in 10.0 mi SSW 4.6 mph - N/A   Clear
11:15 PM 41.0 °F 37.1 °F 37.4 °F 87% 29.96 in 10.0 mi SSW 5.8 mph - N/A   Clear
11:35 PM 39.2 °F 34.2 °F 37.4 °F 93% 29.96 in 10.0 mi SSW 6.9 mph - N/A   Clear
11:55 PM 41.0 °F 37.1 °F 37.4 °F 87% 29.97 in 10.0 mi SW 5.8 mph - N/A   Clear